TimeHST,TemperatureF,Dew PointF,Humidity,Sea Level PressureIn,VisibilityMPH,Wind Direction,Wind SpeedMPH,Gust SpeedMPH,PrecipitationIn,Events,Conditions,WindDirDegrees,DateUTC
12:57 AM,69.8,57.9,66,30.14,10.0,East,5.8,-,N/A,,Overcast,90,2013-02-03 10:57:00
1:57 AM,69.1,59.0,70,30.13,10.0,East,4.6,-,N/A,,Scattered Clouds,80,2013-02-03 11:57:00
2:57 AM,69.8,59.0,68,30.12,10.0,Calm,Calm,-,N/A,,Mostly Cloudy,0,2013-02-03 12:57:00
3:57 AM,-9999,-9999,N/A,30.12,10.0,East,4.6,-,N/A,,Overcast,90,2013-02-03 13:57:00
4:57 AM,69.8,59.0,68,30.13,10.0,ENE,4.6,-,N/A,,Overcast,60,2013-02-03 14:57:00
5:57 AM,69.8,57.9,66,30.14,10.0,Calm,Calm,-,N/A,,Overcast,0,2013-02-03 15:57:00
6:57 AM,69.8,57.9,66,30.16,10.0,ENE,6.9,-,N/A,,Overcast,70,2013-02-03 16:57:00
7:57 AM,71.6,57.9,62,30.18,10.0,NE,4.6,-,N/A,,Overcast,40,2013-02-03 17:57:00
8:57 AM,71.6,57.9,62,30.19,10.0,ENE,6.9,-,N/A,,Overcast,60,2013-02-03 18:57:00
9:57 AM,69.8,57.0,64,30.20,10.0,Variable,5.8,-,N/A,,Overcast,0,2013-02-03 19:57:00
10:57 AM,76.1,57.9,53,30.19,10.0,ENE,4.6,-,N/A,,Overcast,60,2013-02-03 20:57:00
11:57 AM,77.0,57.9,52,30.16,10.0,ENE,9.2,-,N/A,,Mostly Cloudy,60,2013-02-03 21:57:00
12:57 PM,78.8,57.9,49,30.14,10.0,ENE,6.9,16.1,N/A,,Mostly Cloudy,60,2013-02-03 22:57:00
1:57 PM,78.8,57.9,49,30.12,10.0,ENE,6.9,-,N/A,,Partly Cloudy,60,2013-02-03 23:57:00
2:57 PM,78.8,57.0,47,30.10,10.0,NE,9.2,-,N/A,,Mostly Cloudy,40,2013-02-04 00:57:00
3:57 PM,80.1,59.0,48,30.12,10.0,NE,10.4,-,N/A,,Mostly Cloudy,40,2013-02-04 01:57:00
4:57 PM,-9999,-9999,N/A,30.13,10.0,NE,10.4,-,N/A,,Mostly Cloudy,50,2013-02-04 02:57:00
5:57 PM,77.0,57.9,52,30.14,10.0,NE,9.2,17.3,N/A,,Mostly Cloudy,40,2013-02-04 03:57:00
6:57 PM,74.1,57.9,57,30.15,10.0,ENE,8.1,17.3,N/A,,Overcast,60,2013-02-04 04:57:00
7:57 PM,73.4,57.0,56,30.16,10.0,ENE,9.2,19.6,N/A,,Overcast,60,2013-02-04 05:57:00
8:57 PM,71.6,57.0,60,30.17,10.0,ENE,9.2,18.4,N/A,,Overcast,70,2013-02-04 06:57:00
9:57 PM,71.6,57.0,60,30.17,10.0,ENE,11.5,19.6,N/A,,Overcast,60,2013-02-04 07:57:00
10:57 PM,69.8,55.9,61,30.17,10.0,NE,9.2,18.4,N/A,,Overcast,50,2013-02-04 08:57:00